SPOT 6                  
1 38755U 12047A   19265.07748962 -.00000047  00000-0 -22158-6 0  9995
2 38755  98.2028 330.9903 0001046  72.3855 287.7460 14.58547011374472
PROITERES               
1 38756U 12047B   19265.10144420  .00000063  00000-0  17105-4 0  9999
2 38756  98.3808  65.1496 0012318  10.0284 350.1156 14.76587580378862
PSLV R/B                
1 38757U 12047C   19264.39128140  .00000040  00000-0  12935-4 0  9992
2 38757  98.0979  14.1897 0005583   1.6710 358.4518 14.77614385379054